NUSAT-16 (LISE)

Last updated on Fri Sep 22 2023 00:02:25 GMT+0000 (Coordinated Universal Time)

1 46840U 20079P 23263.89154175 .05111725 23451-5 90965-3 0 9990 2 46840 97.1344 340.9698 0011567 263.4945 96.5034 16.32503793161660

Satellite not in orbit

NUSAT-16 (LISE)